Location: Damada
(14.7329°N, 3.1761°W)
Time: 19:10:32
(UTC+00:00)

Cosmos 1346 Rocket - Pass Details

Date: 18 February 2020
Orbit: 527 x 552 km, 81.2° (Epoch: 05 April)

Event Time Altitude Azimuth Distance (km) Brightness Sun altitude
Rises 19:02:26 0° 168° (SSE) 2,714 6.3 -11.5°
Reaches altitude 10° 19:04:45 10° 158° (SSE) 1,820 5.3 -12.0°
Maximum altitude 19:08:22 33° 94° (E) 942 3.5 -12.9°
Drops below altitude 10° 19:11:58 10° 30° (NNE) 1,814 5.1 -13.7°
Enters shadow 19:12:23 - 27° (NNE) 1,974 5.3 -13.8°
